When you browse on this site, cookies collect data to enhance your experience and personalize the content and advertising you see.
Visit our Privacy Policy to learn more. By continuing to use the site, you agree to this use of cookies and data.
  • In Lithuania
  • List of Countries
  • For 7 days
  • Water Temperature
  • Satellite Maps
  • Weather Map
  • Weather Widgets
  • user-avatar
    Login

    Hourly Weather Northallerton

    Today, 24 June, Monday

    Time Temperature Precipitation Wind Pressure Humidity
    00:00 +13°C° 0 mm 3 mps 760 mmHg 95%
    01:00 +13°C° 1 mm 3 mps 759 mmHg 96%
    02:00 +13°C° 1 mm 3 mps 759 mmHg 97%
    03:00 +13°C° 1 mm 3 mps 758 mmHg 98%
    04:00 +14°C° 0.4 mm 3 mps 758 mmHg 98%
    05:00 +15°C° 0.4 mm 2 mps 758 mmHg 98%
    06:00 +16°C° 0.4 mm 2 mps 757 mmHg 98%
    07:00 +17°C° 0.1 mm 2 mps 757 mmHg 96%
    08:00 +17°C° 0.1 mm 2 mps 757 mmHg 95%
    09:00 +18°C° 0.1 mm 2 mps 757 mmHg 94%
    10:00 +19°C° 0.1 mm 2 mps 757 mmHg 93%
    11:00 +19°C° 0.1 mm 2 mps 757 mmHg 91%
    12:00 +20°C° 0.1 mm 2 mps 757 mmHg 90%
    13:00 +20°C° 0.2 mm 2 mps 758 mmHg 90%
    14:00 +20°C° 0.2 mm 2 mps 758 mmHg 90%
    15:00 +20°C° 0.2 mm 2 mps 758 mmHg 90%
    16:00 +20°C° 0.3 mm 2 mps 758 mmHg 90%
    17:00 +20°C° 0.3 mm 2 mps 758 mmHg 91%
    18:00 +20°C° 0.3 mm 2 mps 758 mmHg 91%
    19:00 +19°C° 0 mm 2 mps 759 mmHg 92%
    20:00 +19°C° 0 mm 1 mps 759 mmHg 94%
    21:00 +16°C° 0 mm 1 mps 760 mmHg 96%
    22:00 +16°C° 0 mm 1 mps 760 mmHg 96%
    23:00 +16°C° 0 mm 2 mps 760 mmHg 97%

    Tomorrow, 25 June, Tuesday

    Time Temperature Precipitation Wind Pressure Humidity
    00:00 +16°C° 0 mm 2 mps 760 mmHg 97%
    01:00 +15°C° 0 mm 2 mps 760 mmHg 97%
    02:00 +14°C° 0 mm 3 mps 760 mmHg 96%
    03:00 +14°C° 0 mm 3 mps 760 mmHg 96%
    04:00 +14°C° 0.4 mm 4 mps 760 mmHg 96%
    05:00 +14°C° 0.4 mm 4 mps 760 mmHg 96%
    06:00 +14°C° 0.4 mm 5 mps 760 mmHg 96%
    07:00 +13°C° 1 mm 4 mps 761 mmHg 96%
    08:00 +13°C° 1 mm 4 mps 761 mmHg 97%
    09:00 +13°C° 1 mm 4 mps 761 mmHg 97%
    10:00 +13°C° 0.1 mm 5 mps 761 mmHg 96%
    11:00 +13°C° 0.1 mm 5 mps 761 mmHg 95%
    12:00 +13°C° 0.1 mm 5 mps 762 mmHg 95%
    13:00 +13°C° 0.1 mm 5 mps 762 mmHg 94%
    14:00 +13°C° 0.1 mm 5 mps 762 mmHg 94%
    15:00 +14°C° 0.1 mm 5 mps 762 mmHg 93%
    16:00 +14°C° 0 mm 5 mps 762 mmHg 94%
    17:00 +13°C° 0 mm 5 mps 763 mmHg 94%
    18:00 +13°C° 0 mm 4 mps 763 mmHg 95%
    19:00 +13°C° 0 mm 4 mps 763 mmHg 94%
    20:00 +13°C° 0 mm 4 mps 764 mmHg 94%
    21:00 +13°C° 0 mm 4 mps 764 mmHg 94%
    22:00 +13°C° 0 mm 4 mps 765 mmHg 94%
    23:00 +13°C° 0 mm 4 mps 765 mmHg 93%

    Day after tomorrow, 26 June, Wednesday

    Time Temperature Precipitation Wind Pressure Humidity
    00:00 +12°C° 0 mm 4 mps 765 mmHg 93%
    01:00 +12°C° 0 mm 4 mps 766 mmHg 92%
    02:00 +12°C° 0 mm 4 mps 766 mmHg 92%
    03:00 +12°C° 0 mm 4 mps 766 mmHg 92%
    04:00 +12°C° 0 mm 4 mps 766 mmHg 91%
    05:00 +12°C° 0 mm 4 mps 766 mmHg 91%
    06:00 +12°C° 0 mm 4 mps 767 mmHg 91%
    07:00 +13°C° 0 mm 4 mps 767 mmHg 89%
    08:00 +13°C° 0 mm 4 mps 767 mmHg 87%
    09:00 +14°C° 0 mm 4 mps 768 mmHg 86%
    10:00 +14°C° 0 mm 5 mps 768 mmHg 84%
    11:00 +14°C° 0 mm 5 mps 768 mmHg 83%
    12:00 +15°C° 0 mm 5 mps 769 mmHg 81%
    13:00 +15°C° 0 mm 5 mps 769 mmHg 80%
    14:00 +15°C° 0 mm 5 mps 768 mmHg 79%
    15:00 +16°C° 0 mm 5 mps 768 mmHg 78%
    16:00 +15°C° 0 mm 5 mps 768 mmHg 78%
    17:00 +14°C° 0 mm 4 mps 769 mmHg 79%
    18:00 +14°C° 0 mm 4 mps 769 mmHg 80%
    19:00 +12°C° 0 mm 3 mps 769 mmHg 84%
    20:00 +11°C° 0 mm 3 mps 769 mmHg 88%
    21:00 +9°C° 0 mm 2 mps 769 mmHg 93%
    22:00 +9°C° 0 mm 2 mps 769 mmHg 92%
    23:00 +8°C° 0 mm 2 mps 769 mmHg 91%

    27 June, Thursday

    Time Temperature Precipitation Wind Pressure Humidity
    00:00 +9°C° 0 mm 1 mps 769 mmHg 90%
    01:00 +9°C° 0 mm 1 mps 769 mmHg 88%
    02:00 +9°C° 0 mm 1 mps 769 mmHg 86%
    03:00 +8°C° 0 mm 1 mps 769 mmHg 84%
    04:00 +9°C° 0 mm 1 mps 769 mmHg 82%
    05:00 +11°C° 0 mm 1 mps 769 mmHg 79%
    06:00 +12°C° 0 mm 2 mps 769 mmHg 77%
    07:00 +14°C° 0 mm 2 mps 769 mmHg 74%
    08:00 +15°C° 0 mm 2 mps 769 mmHg 71%
    09:00 +17°C° 0 mm 2 mps 769 mmHg 67%
    10:00 +18°C° 0 mm 2 mps 769 mmHg 66%
    11:00 +19°C° 0 mm 3 mps 768 mmHg 66%
    12:00 +20°C° 0 mm 3 mps 768 mmHg 65%
    13:00 +20°C° 0 mm 3 mps 768 mmHg 66%
    14:00 +20°C° 0 mm 3 mps 768 mmHg 67%
    15:00 +20°C° 0 mm 4 mps 767 mmHg 68%
    16:00 +19°C° 0 mm 4 mps 767 mmHg 71%
    17:00 +18°C° 0 mm 4 mps 767 mmHg 75%
    18:00 +17°C° 0 mm 3 mps 767 mmHg 79%
    19:00 +14°C° 0 mm 3 mps 767 mmHg 84%
    20:00 +13°C° 0 mm 2 mps 767 mmHg 90%
    21:00 +10°C° 0 mm 2 mps 767 mmHg 95%
    22:00 +10°C° 0 mm 2 mps 767 mmHg 96%
    23:00 +11°C° 0 mm 1 mps 767 mmHg 96%

    28 June, Friday

    Time Temperature Precipitation Wind Pressure Humidity
    00:00 +10°C° 0 mm 1 mps 766 mmHg 97%
    01:00 +10°C° 0 mm 1 mps 766 mmHg 97%
    02:00 +10°C° 0 mm 1 mps 766 mmHg 97%
    03:00 +11°C° 0 mm 1 mps 766 mmHg 97%
    04:00 +11°C° 0 mm 1 mps 766 mmHg 96%
    05:00 +12°C° 0 mm 2 mps 765 mmHg 94%
    06:00 +13°C° 0 mm 2 mps 765 mmHg 93%
    07:00 +14°C° 0 mm 2 mps 765 mmHg 88%
    08:00 +16°C° 0 mm 2 mps 765 mmHg 83%
    09:00 +17°C° 0 mm 2 mps 764 mmHg 78%
    10:00 +18°C° 0 mm 3 mps 764 mmHg 75%
    11:00 +19°C° 0 mm 3 mps 764 mmHg 73%
    12:00 +21°C° 0 mm 4 mps 764 mmHg 70%
    13:00 +21°C° 0 mm 4 mps 763 mmHg 70%
    14:00 +21°C° 0 mm 4 mps 763 mmHg 71%
    15:00 +21°C° 0 mm 4 mps 762 mmHg 71%
    16:00 +20°C° 0 mm 4 mps 762 mmHg 73%
    17:00 +19°C° 0 mm 3 mps 761 mmHg 75%
    18:00 +19°C° 0 mm 3 mps 761 mmHg 77%
    19:00 +17°C° 0 mm 3 mps 761 mmHg 80%
    20:00 +16°C° 0 mm 3 mps 761 mmHg 83%
    21:00 +14°C° 0 mm 2 mps 760 mmHg 86%
    22:00 +13°C° 0 mm 2 mps 760 mmHg 88%
    23:00 +13°C° 0 mm 2 mps 759 mmHg 90%

    29 June, Saturday

    Time Temperature Precipitation Wind Pressure Humidity
    00:00 +12°C° 0 mm 2 mps 759 mmHg 91%
    01:00 +12°C° 0 mm 2 mps 758 mmHg 89%
    02:00 +13°C° 0 mm 2 mps 758 mmHg 87%
    03:00 +12°C° 0 mm 3 mps 757 mmHg 85%
    04:00 +13°C° 0 mm 3 mps 756 mmHg 86%
    05:00 +14°C° 0 mm 3 mps 756 mmHg 86%
    06:00 +16°C° 0 mm 3 mps 756 mmHg 87%
    07:00 +16°C° 0.4 mm 3 mps 755 mmHg 88%
    08:00 +17°C° 0.4 mm 3 mps 755 mmHg 89%
    09:00 +17°C° 0.4 mm 3 mps 755 mmHg 90%
    10:00 +19°C° 0.1 mm 3 mps 754 mmHg 87%
    11:00 +21°C° 0.1 mm 3 mps 754 mmHg 83%
    12:00 +24°C° 0.1 mm 3 mps 754 mmHg 79%
    13:00 +23°C° 0 mm 4 mps 754 mmHg 76%
    14:00 +23°C° 0 mm 5 mps 754 mmHg 72%
    15:00 +23°C° 0 mm 5 mps 753 mmHg 69%
    16:00 +22°C° 0 mm 5 mps 753 mmHg 72%
    17:00 +21°C° 0 mm 5 mps 753 mmHg 74%
    18:00 +20°C° 0 mm 5 mps 753 mmHg 76%
    19:00 +17°C° 0 mm 5 mps 754 mmHg 80%
    20:00 +17°C° 0 mm 4 mps 754 mmHg 84%
    21:00 +14°C° 0 mm 4 mps 754 mmHg 88%
    22:00 +14°C° 0 mm 4 mps 754 mmHg 89%
    23:00 +13°C° 0 mm 4 mps 754 mmHg 90%
    Show more